User: anonymous   Login
Location: Sun City Center
(27.6996°N, 82.3528°W)
Time: 07:05:02
(UTC-04:00)
Language:

Cosmos 2084 Rocket - Orbit

View from above orbital plane
View from above orbital plane
View from above satellite
View from above satellite

Ground track
Ground track

The orbit data is extracted from the following two-line orbital elements,

1 20666U 90055D   17145.43362877 +.00000085 +00000-0 +25122-4 0  9996
2 20666 062.7838 222.9192 0132363 106.9217 254.6436 14.91918315458310
Epoch (UTC): 25 May 2017 10:24:25
Eccentricity: 0.0132363
inclination: 62.7838°
perigee height: 500 km
apogee height: 684 km
right ascension of ascending node: 222.9192°
argument of perigee: 106.9217°
revolutions per day: 14.91918315
mean anomaly at epoch: 254.6436°
orbit number at epoch: 45831

The dashed part of the orbit path shows where the satellite is in the earth's shadow,  

DLR